This demonstration page uses our WeatherBlox Daily Observations layout. Learn more.

Hourly Observations for April 13, 2019

Temp ( °F °C ) Dew Point ( °F °C ) Humidity (%) Winds ( mph kmh ) Pressure ( in mb ) Visibility ( mi km ) Precip ( " mm )
12:15 am 00:15 Cloudy 59 15 59 15 100 100 S 8 13 30.06 1018 10 16.09344 0 0
12:35 am 00:35 Cloudy 59 15 59 15 100 100 S 8 13 30.06 1018 10 16.09344 0 0
12:55 am 00:55 Cloudy 59 15 59 15 100 100 SSW 5 7 30.06 1018 10 16.09344 0 0
1:15 am 01:15 Cloudy 59 15 59 15 100 100 S 6 9 30.06 1018 7 11.265408 0 0
1:35 am 01:35 Cloudy 59 15 59 15 100 100 S 6 9 30.06 1018 5 8.04672 0 0
1:55 am 01:55 Cloudy 59 15 59 15 100 100 SSW 3 6 30.06 1018 4 6.437376 0 0
2:15 am 02:15 Cloudy 59 15 59 15 100 100 Calm 30.03 1017 3 4.828032 0 0
2:35 am 02:35 Cloudy 59 15 59 15 100 100 Calm 30.03 1017 4 6.437376 0 0
2:55 am 02:55 Cloudy 59 15 59 15 100 100 Calm 30.03 1017 1.25 2.01168 0 0
3:15 am 03:15 Cloudy 59 15 59 15 100 100 Calm 30.06 1018 1.75 2.816352 0 0
3:35 am 03:35 Cloudy with Nearby Thunderstorms 61 16 61 16 100 100 Calm 30.06 1018 7 11.265408 0 0
3:55 am 03:55 Cloudy 61 16 61 16 100 100 SSW 3 6 30.06 1018 5 8.04672 0 0
4:15 am 04:15 Cloudy 59 15 59 15 100 100 Calm 30.03 1017 7 11.265408 0 0
4:35 am 04:35 Cloudy 59 15 59 15 100 100 Calm 30.06 1018 10 16.09344 0 0
4:55 am 04:55 Cloudy 59 15 59 15 100 100 Calm 30.06 1018 7 11.265408 0 0
5:15 am 05:15 Partly Cloudy 59 15 59 15 100 100 Calm 30.06 1018 10 16.09344 0 0
5:35 am 05:35 Partly Cloudy 59 15 59 15 100 100 ESE 7 11 30.06 1018 10 16.09344 0 0
5:55 am 05:55 Cloudy 55 13 55 13 100 100 S 3 6 30.09 1019 0.75 1.207008 0 0
6:15 am 06:15 Cloudy 59 15 59 15 100 100 SSW 3 6 30.09 1019 0.75 1.207008 0 0
6:35 am 06:35 Cloudy 57 14 57 14 100 100 ESE 6 9 30.09 1019 0.5 0.804672 0 0
6:55 am 06:55 Cloudy 57 14 57 14 100 100 ESE 6 9 30.09 1019 0.25 0.402336 0 0
7:15 am 07:15 Cloudy 55 13 55 13 100 100 WNW 3 6 30.09 1019 0 0 0 0
7:35 am 07:35 Cloudy 55 13 55 13 100 100 Calm 30.12 1020 0 0 0 0
7:55 am 07:55 Cloudy 57 14 57 14 100 100 Calm 30.12 1020 0 0 0 0
8:15 am 08:15 Cloudy 59 15 59 15 100 100 SSW 3 6 30.12 1020 0.5 0.804672 0 0
8:35 am 08:35 Cloudy 59 15 59 15 100 100 Calm 30.12 1020 0.25 0.402336 0 0
8:55 am 08:55 Mostly Cloudy 59 15 59 15 100 100 Calm 30.12 1020 7 11.265408 0 0
9:15 am 09:15 Partly Cloudy 61 16 61 16 100 100 SW 3 6 30.12 1020 10 16.09344 0 0
9:35 am 09:35 Partly Cloudy 61 16 61 16 100 100 Calm 30.12 1020 10 16.09344 0 0
9:55 am 09:55 Sunny 61 16 61 16 100 100 Calm 30.12 1020 10 16.09344 0 0
10:15 am 10:15 Sunny 63 17 63 17 100 100 W 3 6 30.12 1020 10 16.09344 0 0
10:35 am 10:35 Sunny 63 17 61 16 94 94 NNW 7 11 30.12 1020 10 16.09344 0 0
10:55 am 10:55 Sunny 64 18 57 14 78 78 N 5 7 30.12 1020 10 16.09344 0 0
11:15 am 11:15 Sunny 66 19 55 13 68 68 NNW 5 7 30.12 1020 10 16.09344 0 0
11:35 am 11:35 Sunny 68 20 55 13 64 64 Calm 30.12 1020 10 16.09344 0 0
11:55 am 11:55 Sunny 68 20 55 13 64 64 NNW 3 6 30.12 1020 10 16.09344 0 0
12:15 pm 12:15 Sunny 70 21 54 12 57 57 Calm 30.12 1020 10 16.09344 0 0
12:35 pm 12:35 Sunny 70 21 54 12 57 57 NW 6 9 30.12 1020 10 16.09344 0 0
12:55 pm 12:55 Sunny 70 21 52 11 53 53 Calm 30.12 1020 10 16.09344 0 0
1:15 pm 13:15 Sunny 72 22 52 11 50 50 Calm 30.09 1019 10 16.09344 0 0
1:35 pm 13:35 Sunny 72 22 54 12 53 53 SSW 3 6 30.09 1019 10 16.09344 0 0
1:55 pm 13:55 Sunny 73 23 54 12 50 50 S 8 13 30.09 1019 10 16.09344 0 0
2:15 pm 14:15 Sunny 73 23 52 11 47 47 SSW 8 13 30.12 1020 10 16.09344 0 0
2:35 pm 14:35 Partly Cloudy 73 23 52 11 47 47 S 7 11 30.09 1019 10 16.09344 0 0
2:55 pm 14:55 Sunny 73 23 52 11 47 47 S 5 7 30.09 1019 10 16.09344 0 0
3:15 pm 15:15 Sunny 73 23 52 11 47 47 SSW 6 9 30.09 1019 10 16.09344 0 0
3:35 pm 15:35 Sunny 73 23 54 12 50 50 SSW 8 13 30.09 1019 10 16.09344 0 0
3:55 pm 15:55 Partly Cloudy 73 23 52 11 47 47 S 7 11 30.06 1018 10 16.09344 0 0
4:15 pm 16:15 Partly Cloudy 73 23 54 12 50 50 S 8 13 30.06 1018 10 16.09344 0 0
4:35 pm 16:35 Sunny 73 23 54 12 50 50 S 9 15 30.06 1018 10 16.09344 0 0
4:55 pm 16:55 Sunny 73 23 54 12 50 50 S 7 11 30.06 1018 10 16.09344 0 0
5:15 pm 17:15 Sunny 73 23 54 12 50 50 SSW 5 7 30.06 1018 10 16.09344 0 0
5:35 pm 17:35 Sunny 72 22 54 12 53 53 S 5 7 30.06 1018 10 16.09344 0 0
5:55 pm 17:55 Sunny 72 22 54 12 53 53 S 3 6 30.06 1018 10 16.09344 0 0
6:15 pm 18:15 Sunny 72 22 54 12 53 53 S 6 9 30.03 1017 10 16.09344 0 0
6:35 pm 18:35 Sunny 72 22 54 12 53 53 S 6 9 30.03 1017 10 16.09344 0 0
6:55 pm 18:55 Sunny 70 21 55 13 60 60 S 6 9 30.03 1017 10 16.09344 0 0
7:15 pm 19:15 Partly Cloudy 70 21 55 13 60 60 S 7 11 30.03 1017 10 16.09344 0 0
7:35 pm 19:35 Mostly Cloudy 70 21 55 13 60 60 S 6 9 30.03 1017 10 16.09344 0 0
7:55 pm 19:55 Partly Cloudy 70 21 57 14 64 64 SSW 6 9 30.03 1017 10 16.09344 0 0
8:15 pm 20:15 Clear 70 21 57 14 64 64 S 3 6 30.03 1017 10 16.09344 0 0
8:35 pm 20:35 Clear 70 21 59 15 69 69 S 8 13 30.03 1017 10 16.09344 0 0
8:55 pm 20:55 Partly Cloudy 70 21 59 15 69 69 S 8 13 30.03 1017 10 16.09344 0 0
9:15 pm 21:15 Partly Cloudy 68 20 59 15 73 73 S 8 13 30.03 1017 10 16.09344 0 0
9:35 pm 21:35 Cloudy 68 20 61 16 78 78 S 5 7 30.03 1017 10 16.09344 0 0
9:55 pm 21:55 Mostly Cloudy 66 19 61 16 83 83 S 8 13 30.03 1017 10 16.09344 0 0
10:15 pm 22:15 Partly Cloudy 64 18 61 16 88 88 S 8 13 30.03 1017 10 16.09344 0 0
10:35 pm 22:35 Clear 64 18 61 16 88 88 SW 5 7 30.03 1017 10 16.09344 0 0
10:55 pm 22:55 Partly Cloudy 64 18 61 16 88 88 S 5 7 30.03 1017 10 16.09344 0 0
11:15 pm 23:15 Mostly Cloudy 64 18 61 16 88 88 S 3 6 30.03 1017 10 16.09344 0 0
11:35 pm 23:35 Partly Cloudy 64 18 61 16 88 88 S 3 6 30 1016 10 16.09344 0 0
11:55 pm 23:55 Partly Cloudy 63 17 61 16 94 94 S 3 6 30 1016 10 16.09344 0 0

Powered by AerisWeather